Regional Weather Roundup
Issued by NWS

Home | Current Version | Previous Version | Text Only | Print | Product List | Glossary On
Versions: 1 2 3 4 5 6 7 8 9 10 11 12 13 14 15 16 17 18 19 20 21 22 23 24 25 26 27 28 29 30 31 32 33 34 35 36 37 38 39 40 41 42 43 44 45 46 47 48 49 50
000
ASUS45 KBOI 200110
RWRID
WEATHER ROUNDUP FOR IDAHO
NATIONAL WEATHER SERVICE BOISE ID
600 PM MST FRI DEC 19 2014

NOTE: "FAIR" INDICATES FEW OR NO CLOUDS BELOW 12000 FEET
WITH NO SIGNIFICANT WEATHER AND/OR OBSTRUCTIONS TO VISIBILITY

IDZ012-014-200200-
SOUTHWEST IDAHO


CITY           SKY/WX    TMP DP  RH WIND       PRES   REMARKS
BOISE          CLOUDY    41  38  89 E7        30.06R
CALDWELL       CLOUDY    39  32  75 E9        30.07R WCI  33
MOUNTAIN HOME  CLOUDY    37  34  87 E13       30.06S WCI  29
$$

IDZ016-017-200200-
SOUTHCENTRAL IDAHO


CITY           SKY/WX    TMP DP  RH WIND       PRES   REMARKS
BURLEY         LGT RAIN  36  34  92 W3        30.08S
JEROME         LGT RAIN  36  34  92 SE6       30.08S WCI  31
TWIN FALLS     LGT RAIN  39  34  82 S13       30.07S WCI  31
$$

IDZ019>023-200200-
SOUTHEAST IDAHO


CITY           SKY/WX    TMP DP  RH WIND       PRES   REMARKS
IDAHO FALLS    LGT SNOW  35  32  88 S15       30.06S FOG     WCI  25
POCATELLO      LGT RAIN  36  32  85 S12       30.09R WCI  28
REXBURG        FLURRIES  34  31  88 SW7       30.06R WCI  28
$$

IDZ006-010-011-018-031-032-200200-
CENTRAL IDAHO MOUNTAINS


CITY           SKY/WX    TMP DP  RH WIND       PRES   REMARKS
MCCALL         CLOUDY    33  31  92 SE6       29.99R WCI  28
HAILEY         CLOUDY    32  32 100 SE8       30.06S VSB 1   WCI  25
STANLEY          N/A     32  28  85 MISG      30.00S
SALMON         CLOUDY    34  27  75 CALM      29.97F
CHALLIS        CLOUDY    31  28  89 CALM      29.98R
$$

IDZ002-004-006-007-026-200200-
NORTHERN IDAHO


CITY           SKY/WX    TMP DP  RH WIND       PRES   REMARKS
LEWISTON       PTCLDY    41  40  96 CALM      30.01S
LOWELL           N/A     40  38  93 CALM      30.08R
COEUR D`ALENE  CLOUDY    39  36  87 S5        29.95R
MULLAN PASS    SNOW      30  26  85 VRB3      29.88R VSB 1/2
$$



USA.gov is the U.S. government's official web portal to all federal, state and local government web resources and services.